Regional Weather Roundup
Issued by NWS

Home | Current Version | Previous Version | Graphics & Text | Print | Product List | Glossary Off
Versions: 1 2 3 4 5 6 7 8 9 10 11 12 13 14 15 16 17 18 19 20 21 22 23 24 25 26 27 28 29 30 31 32 33 34 35 36 37 38 39 40 41 42 43 44 45 46 47 48 49 50

000
ASUS43 KIND 231509
RWRIN

WEATHER ROUNDUP FOR INDIANA
NATIONAL WEATHER SERVICE INDIANAPOLIS IN
1100 AM EDT SAT MAY 23 2015

NOTE: "FAIR" INDICATES FEW OR NO CLOUDS BELOW 12,000 FEET WITH NO
SIGNIFICANT WEATHER AND/OR OBSTRUCTIONS TO VISIBILITY.

* - STATION DOES NOT REPORT WEATHER SUCH AS PRECIPITATION OR FOG.

+ - STATION NOT QUALITY CONTROLLED BY THE NATIONAL WEATHER SERVICE.
    USE DATA WITH CAUTION...ESPECIALLY DEWPOINT AND RELATIVE
    HUMIDITY OBSERVATIONS.

INZ001>003-010>013-019-020-231600-
NORTHWEST INDIANA

CITY           SKY/WX    TMP DP  RH WIND       PRES   REMARKS
GARY /AIRPORT/ MOSUNNY   68  39  34 S9        30.36S
KNOX *+        SUNNY     70  37  30 S7        30.36F
LA PORTE +     SUNNY     70  40  33 S7        30.37F
MICHIGAN CITY+ SUNNY     68  36  30 S8        30.37S
MONTICELLO +   CLOUDY    68  47  46 S7        30.36S
RENSSELAER +   SUNNY     70  43  37 SE12      30.36S
VALPARAISO     MOSUNNY   70  40  33 SE7       30.36F

$$

LMZ046-743>745-231600-
SOUTHERN LAKE MICHIGAN

STATION/POSITION TIME  TEMP    WIND        PRES    WAVE
                       AIR SEA DIR/SP/G            HT
                 (UTC) (F)     (DEG/KT/KT) (MB)    (FT)
BURNS HARBOR     1500   69     180/ 10/ 14 1028.4S
MICHIGAN CITY    1500   66     130/ 10/ 12   N/A
5NW MICH CITY    1500   60 51  180/  2/  6   N/A     1

$$

INZ004-005-014>016-021>024-231600-
NORTH CENTRAL INDIANA

CITY           SKY/WX    TMP DP  RH WIND       PRES   REMARKS
GOSHEN         SUNNY     68  44  42 SW9       30.38S
LOGANSPORT +   SUNNY     70  37  30 S8        30.37F
PERU/GRISSOM   SUNNY     70  46  43 S9        30.36S
ROCHESTER +    SUNNY     72  41  33 S7        30.38S
SOUTH BEND     SUNNY     69  37  30 S8        30.38S
WARSAW +       SUNNY     68  43  40 SW5       30.38S

$$

INZ006>009-017-018-025>027-231600-
NORTHEAST INDIANA

CITY           SKY/WX    TMP DP  RH WIND       PRES   REMARKS
ANGOLA *+      SUNNY     64  57  77 SW5       30.38F
AUBURN +       SUNNY     66  41  39 SW6       30.40S
FORT WAYNE     PTSUNNY   68  43  40 SW6       30.39F
HUNTINGTON +   MOSUNNY   69  43  38 SW5       30.38S

$$

INZ028-029-035-036-043>045-051>053-231600-
WEST CENTRAL INDIANA

CITY           SKY/WX    TMP DP  RH WIND       PRES   REMARKS
CRAWFORDSVL +  SUNNY     70  42  35 S7        30.37S
GREENCASTLE +  SUNNY     70  50  49 S5        30.38F
LAFAYETTE      SUNNY     70  48  45 SW5       30.36S
TERRE HAUTE    SUNNY     71  55  56 SE8       30.37S

$$

INZ030>032-037>040-046>048-054>057-064-065-231600-
CENTRAL INDIANA

CITY           SKY/WX    TMP DP  RH WIND       PRES   REMARKS
CP ATTERBURY + SUNNY     70  54  56 CALM      30.39F
COLUMBUS       MOSUNNY   68  50  52 S5        30.39F
FRANKFORT +    SUNNY     74  48  39 S5        30.38S
GREENWOOD *+   SUNNY     72  43  35 S7        30.39S
INDIANAPOLIS   MOSUNNY   71  49  45 S8        30.37S
-EAGLE CREEK   SUNNY     71  49  45 S7        30.37F
KOKOMO *+      SUNNY     72  46  40 S12       30.37S
MARION +       MOSUNNY   71  41  34 S9        30.39S
MT COMFORT *+  SUNNY     73  34  23 SW6       30.39S
SHELBYVILLE    SUNNY     72  51  47 S7        30.38S
ZIONSVILLE +   SUNNY     72  48  42 S8        30.38S

$$

INZ033-034-041-042-049-050-058-059-231600-
EAST CENTRAL INDIANA

CITY           SKY/WX    TMP DP  RH WIND       PRES   REMARKS
MUNCIE         SUNNY     72  46  39 S8        30.38F

$$

INZ060-061-067>069-081>083-085>088-231600-
SOUTHWEST INDIANA

CITY           SKY/WX    TMP DP  RH WIND       PRES   REMARKS
EVANSVILLE     CLOUDY    69  57  65 SE5       30.36F
HUNTINGBURG *+ CLOUDY    70  55  60 E7        30.37F
WASHINGTON +   CLOUDY    68  53  59 SE5       30.36F

$$

INZ062-063-066-070>080-084-089>092-231600-
SOUTH CENTRAL AND SOUTHEAST INDIANA

CITY           SKY/WX    TMP DP  RH WIND       PRES   REMARKS
BLOOMINGTON    SUNNY     72  54  53 VRB3      30.38S
MADISON *+     PTSUNNY   68  50  52 CALM      30.42S
NORTH VERNON + MOSUNNY   72  54  53 CALM      30.41R
SEYMOUR +      MOSUNNY   73  54  49 CALM      30.39S

$$



USA.gov is the U.S. government's official web portal to all federal, state and local government web resources and services.